Weather History for San Angelo, TX

Change the Weather History Date:

Saturday, January 25, 2014

  Actual Average Record
Temperature  
Mean Temperature 47 °F 47 °F  
Max Temperature 70 °F 60 °F 82 °F (1950)
Min Temperature 23 °F 34 °F 4 °F (1926)
Degree Days  
Heating Degree Days 18 18  
Month to date heating degree days 467 469  
Since 1 July heating degree days 1566 1436  
Cooling Degree Days 0 0  
Month to date cooling degree days 0 0  
Year to date cooling degree days 0 0  
Moisture  
Dew Point 16 °F    
Average Humidity 35    
Maximum Humidity 60    
Minimum Humidity 10    
Precipitation  
Precipitation 0.00 in 0.03 in 1.36 in (2012)
Month to date precipitation T 0.73  
Year to date precipitation T 0.73  
Snow  
Snow 0.00 in 0.00 in 4.90 in (1973)
Month to date snowfall T 1.0  
Since 1 July snowfall 1.5 1.6  
Snow Depth 0.00 in    
Sea Level Pressure  
Sea Level Pressure 30.16 in    
Wind  
Wind Speed 7 mph (SW)    
Max Wind Speed 14 mph    
Max Gust Speed 15 mph    
Visibility 10 miles    
Events      
T = Trace of Precipitation, MM = Missing Value Source: NWS Daily Summary

Daily Weather History Graph

Daily Weather History Graph

Search for Another Location

Airport:

Trip Planner

Search our weather history database for the weather conditions in past years. The results will help you decide how hot, cold, wet, or windy it might be!

Date:

Astronomy

Jan. 25, 2014 Rise Set
Actual Time 7:38 AM CST 6:10 PM CST
Civil Twilight 7:12 AM CST 6:36 PM CST
Nautical Twilight 6:43 AM CST 7:05 PM CST
Astronomical Twilight 6:14 AM CST 7:34 PM CST
Moon 2:13 AM CST (1/25) 1:12 PM CST (1/25)
Length of Visible Light 11h 24m
Length of Day
10h 32m
Waning Crescent, 34% of the Moon is Illuminated
Jan 25
Waning Crescent
Jan 30
New
Feb 6
First Quarter
Feb 14
Full
Feb 22
Last Quarter

Hourly Weather History & Observations

Time (CST) Temp. Windchill Dew Point Humidity Pressure Visibility Wind Dir Wind Speed Gust Speed Precip Events Conditions
12:51 AM 32.0 °F 22.5 °F 12.9 °F 45% 30.32 in 10.0 mi WSW 12.7 mph - N/A   Clear
1:51 AM 32.0 °F 22.5 °F 12.9 °F 45% 30.29 in 10.0 mi WSW 12.7 mph - N/A   Clear
2:51 AM 30.0 °F 25.2 °F 12.9 °F 49% 30.27 in 10.0 mi WSW 4.6 mph - N/A   Clear
3:51 AM 26.1 °F 18.4 °F 12.0 °F 55% 30.26 in 10.0 mi SW 6.9 mph - N/A   Clear
4:51 AM 26.1 °F 19.4 °F 12.9 °F 58% 30.26 in 10.0 mi West 5.8 mph - N/A   Clear
5:51 AM 24.1 °F 15.2 °F 12.0 °F 60% 30.25 in 10.0 mi SW 8.1 mph - N/A   Clear
6:51 AM 26.1 °F 16.2 °F 12.9 °F 58% 30.26 in 10.0 mi SW 10.4 mph - N/A   Clear
7:51 AM 26.1 °F 17.6 °F 14.0 °F 60% 30.27 in 10.0 mi SW 8.1 mph - N/A   Clear
8:51 AM 35.1 °F 28.6 °F 16.0 °F 46% 30.27 in 10.0 mi WSW 8.1 mph - N/A   Clear
9:51 AM 42.1 °F 36.6 °F 17.1 °F 37% 30.27 in 10.0 mi WSW 9.2 mph - N/A   Clear
10:51 AM 50.0 °F - 17.1 °F 27% 30.25 in 10.0 mi WSW 10.4 mph - N/A   Clear
11:51 AM 57.0 °F - 17.1 °F 21% 30.21 in 10.0 mi West 9.2 mph - N/A   Clear
12:51 PM 62.1 °F - 17.1 °F 18% 30.15 in 10.0 mi WNW 10.4 mph - N/A   Clear
1:51 PM 68.0 °F - 16.0 °F 14% 30.10 in 10.0 mi WNW 8.1 mph - N/A   Clear
2:51 PM 69.1 °F - 16.0 °F 13% 30.08 in 10.0 mi Calm Calm - N/A   Clear
3:51 PM 68.0 °F - 10.9 °F 11% 30.08 in 10.0 mi Calm Calm - N/A   Clear
4:51 PM 66.9 °F - 14.0 °F 13% 30.07 in 10.0 mi SSW 3.5 mph - N/A   Clear
5:51 PM 66.0 °F - 15.1 °F 14% 30.06 in 10.0 mi SSE 3.5 mph - N/A   Clear
6:51 PM 60.1 °F - 17.1 °F 19% 30.07 in 10.0 mi SE 5.8 mph - N/A   Scattered Clouds
7:51 PM 55.9 °F - 19.0 °F 24% 30.06 in 10.0 mi SSE 6.9 mph - N/A   Partly Cloudy
8:51 PM 54.0 °F - 19.0 °F 25% 30.04 in 10.0 mi South 4.6 mph - N/A   Clear
9:51 PM 54.0 °F - 19.9 °F 26% 30.03 in 10.0 mi South 6.9 mph - N/A   Overcast
10:51 PM 54.0 °F - 21.0 °F 28% 30.00 in 10.0 mi South 8.1 mph - N/A   Partly Cloudy
11:51 PM 50.0 °F - 23.0 °F 35% 29.99 in 10.0 mi SSW 5.8 mph - N/A   Clear